Regional Weather Roundup
Issued by NWS Sioux Falls, SD

Home | Current Version | Previous Version | Text Only | Print | Product List | Glossary On
Versions: 1 2 3 4 5 6 7 8 9 10 11 12 13 14 15 16 17 18 19 20 21 22 23 24 25 26 27 28 29 30 31 32 33 34 35 36 37 38 39 40 41 42 43 44 45 46 47 48 49 50
000
ASUS43 KFSD 041010
RWRFSD

WEATHER ROUNDUP FOR SE SOUTH DAKOTA/SW MINNESOTA/NW IOWA
NATIONAL WEATHER SERVICE SIOUX FALLS SD
500 AM CDT MON MAY 04 2015

NOTE: "FAIR" INDICATES FEW OR NO CLOUDS BELOW 12,000 FEET WITH NO
SIGNIFICANT WEATHER AND OR OBSTRUCTIONS TO VISIBILITY.


SDZ038>040-050-052>070-041100-
SOUTHEAST SOUTH DAKOTA

CITY           SKY/WX    TMP DP  RH WIND       PRES   REMARKS
BROOKINGS      CLEAR     39  28  65 NW6       30.12R
CHAMBERLAIN    PTCLDY    46  24  41 NE7       30.12R
HURON          PTCLDY    33  25  72 NW8       30.12R WCI  26
MADISON        FAIR      37  27  65 N12       30.10S
MITCHELL       PTCLDY    39  33  79 NW6       30.11R
SIOUX FALLS    PTCLDY    50  28  42 N10       30.08R
WINNER         FAIR      47  26  44 N6        30.11S
YANKTON        PTCLDY    48  30  49 N6        30.07R
$$

MNZ071-072-080-081-089-090-097-098-041100-
SOUTHWEST MINNESOTA

CITY           SKY/WX    TMP DP  RH WIND       PRES   REMARKS
FAIRMONT       MOCLDY    52  32  46 N12       30.03R
JACKSON        MOCLDY    52  28  40 N8        30.05R
LUVERNE        PTCLDY    52  27  37 NE12      30.08R
MARSHALL       CLEAR     43  25  49 NW9       30.09R
MONTEVIDEO     CLEAR     45  28  53 N5        30.09R
REDWOOD FALLS  CLEAR     50  30  46 N5        30.06R
TRACY          CLEAR     47  28  47 NW10      30.09R
WORTHINGTON    MOCLDY    46  27  46 N9        30.08R
$$

IAZ001>003-012>014-020>022-031-032-NEZ013-014-SDZ071-041100-
NORTHWEST IOWA

CITY           SKY/WX    TMP DP  RH WIND       PRES   REMARKS
CHEROKEE       CLOUDY    55  33  43 N10       30.02F
DENISON        CLOUDY    57  50  77 NE17G24   29.96R
ESTHERVILLE    CLOUDY    50  33  52 N14       30.02R
LE MARS        CLOUDY    54  32  43 N10       30.05R
ORANGE CITY    MOCLDY    52  28  40 N10G16    30.04S
SHELDON        MOCLDY    50  32  50 N10       30.04R
SIOUX CITY     CLOUDY    56  39  53 N10       30.04R
SPENCER        CLOUDY    51  36  56 N10       30.04R
STORM LAKE     DRIZZLE   54  41  62 N10       30.04R
$$

ABBREVIATIONS USED IN REMARKS
   TC - TEMPERATURE IN CELSIUS
  WCI - WIND CHILL INDEX
   HX - HEAT INDEX
  VSB - VISIBILITY



USA.gov is the U.S. government's official web portal to all federal, state and local government web resources and services.